METAR Formatted Surface Weather Observation
Issued by NWS

Home | Current Version | Previous Version | Text Only | Print | Product List | Glossary On
Versions: 1 2 3 4 5 6 7 8 9 10 11 12 13 14 15 16 17 18 19 20 21 22 23 24 25 26 27 28 29 30 31 32 33 34 35 36 37 38 39 40 41 42 43 44 45 46 47 48 49 50
000
SAUS41 KCAR 230516
MTR40B
METAR K40B 230516Z AUTO 20009G13KT 180V240 20/19 A2953 RMK AO1
     SLP987 T01990192 402600138 55005 P0002



USA.gov is the U.S. government's official web portal to all federal, state and local government web resources and services.